User: anonymous   Login
Location: Unspecified
(0.0000°N, 0.0000°E)
Time: 20:17:02
(UTC+00:00)
Language:

LIBERTAD 1 - Orbit

View from above orbital plane
View from above orbital plane
View from above satellite
View from above satellite

Ground track
Ground track

The orbit data is extracted from the following two-line orbital elements,

1 31128U 07012M   24151.34657197  .00001492  00000-0  30739-3 0  9991
2 31128  98.3429  98.8914 0089679 248.2210 110.9429 14.59574549909073
Epoch (UTC): 30 May 2024 08:19:03
Eccentricity: 0.0089679
inclination: 98.3429°
perigee height: 631 km
apogee height: 758 km
right ascension of ascending node: 98.8914°
argument of perigee: 248.2210°
revolutions per day: 14.59574549
mean anomaly at epoch: 110.9429°
orbit number at epoch: 90907

The dashed part of the orbit path shows where the satellite is in the earth's shadow,  

DLR